Location: Briis
(48.6240°N, 2.1211°E)
Time: 07:44:29
(UTC+00:00)

Cosmos 1515 - Pass Details

Date: 25 September 2020
Orbit: 506 x 516 km, 82.5° (Epoch: 21 October)

Event Time Altitude Azimuth Distance (km) Brightness Sun altitude
Rises 04:31:52 0° 182° (S) 2,608 7.1 -12.5°
Reaches altitude 10° 04:33:59 10° 179° (S) 1,726 6.2 -12.1°
Maximum altitude 04:37:44 68° 97° (E) 553 4.0 -11.5°
Drops below altitude 10° 04:41:31 10° 14° (NNE) 1,736 6.7 -10.9°
Sets 04:43:40 0° 12° (NNE) 2,625 7.6 -10.6°
